Showing default

LEMUR 2 OBA-NI-JESU, 58902

Orbit data source: Space-Track

LEMUR 2 OBA-NI-JESU, 58902 is an American payload satellite in SSO that was launched on Wed, 31 Jan 2024 UTC via an ELECTRON launch vehicle from the Rocket Lab Launch Complex (RLLC). Payload-class satellites include a variety of spacecraft equipped with specific instruments for various scientific and technological missions. These include communications satellites like Starlink; space stations such as the ISS; scientific satellites like the Hubble; Earth observation satellites from companies like Planet Labs, Umbra, and HawkEye 360; GPS; miniature CubeSats for education and research; and military/defense satellites.

Loading next visibility...
Identifier
58902, 2024-022D
Orbit
SSO
Last TLE update
8 hours ago
Origin
Manufacturer
Spire/Glasgow
Mission
Operational Commercial Early Warn
Bus & Motor
CUBESAT 3U, Unknown motor
Mass
~25 kg wet, ~25 kg dry
Launch date (UTC)
2024-01-31 (1 year ago)
Launch vehicle
ELECTRON
Launch site
Rocket Lab Launch Complex (RLLC)
Object type
Payload
Rocket body
Debris
Shape & HBR
Box + 2 Pan, 1 m
Radar Cross Section
0.146 m², Medium (>0.1 m² and < 1m²)

Expand to show TLE details & history

TLE from 8 hours ago
0 LEMUR 2 OBA-NI-JESU
1 58902U 24022D   25182.85199506  .00018232  00000-0  48893-3 0  9996
2 58902  97.4429  28.9995 0006426 254.7576 105.2958 15.38010195 78780
Epoch: 2025-07-01T20:26Z
TLE epoch observation values (Epoch: 2025-07-01T20:26:52.373Z)
Latitude
-0.00006°
Longitude
162.13978°
Altitude
456.268 km
Speed
7.638 km/s
True Right ascension
01h 55m 59s
True Declination
0° 00' 00"
Sunlit
Object was in daylight at epoch
Visualization orbit readout
Latitude
-57.3558°
Longitude
174.1597°
Altitude
471.305 km
Speed
7.631 km/s
Apparent Right ascension
03h 16m 49s
Apparent Declination
-48° 59' 21"
Sunlit
Object is in daylight
Visualization observer readout
Local Sidereal Time
15:41:33
Azimuth
156.194° SSE
Elevation
-79.919°
Doppler factor
1
Orbital elements
Apogee altitude
453.325 km
Perigee altitude
444.55 km
Semi-major axis
6,827.074 km
Eccentricity
0.00064
Inclination
97.4429°
RAAN
28.9995°
Arg. of periapsis
254.7576°
True anomaly
Unknown
Mean anomaly
105.2958°
Eccentric anomaly
Unknown
Mean motion
3.84761 °/min
Orbital period
93.56 mins
BSTAR
0.00048893
Loading maneuver chart data...
Loading SW <> Apogee altitude chart data...
Loading historical data...
Loading historical data...
Loading historical data...
Loading historical data...
Loading historical data...
Loading historical data...
Loading historical data...

LEMUR 2 OBA-NI-JESU Visibility forecast

Observer location: undefined°, undefined°

Span
Click to sort rows by Start time (UTC) header in descending order
Start Az.
Max El. time (UTC)
Max El. Az.
Max El.
End time (UTC)
End Az.
6 mins2025-07-02 13:45:13.186Z163.548° S2025-07-02 13:48:13.186Z14.552° NNE43.578°2025-07-02 13:51:13.186Z350.101° N
5 mins2025-07-03 02:41:13.186Z9.554° NNE2025-07-03 02:43:13.186Z299.861° NW44.82°2025-07-03 02:46:13.186Z195.304° SSW
|